Lid_Strength_Index
5 5 5 5 5 5 5 5 5 5 5 5 5 5 5 5 5 5 5 5 5 5 4 3 3 2 5 9 9 5 4 5 3 4 6 7 9 9 11 11 11 12 10 10 9 10 10
4 4 4 4 4 4 4 4 4 4 4 4 4 5 5 5 5 5 5 5 5 5 5 4 4 3 7 12 4 5 5 6 7 5 6 7 8 8 10 11 11 11 10 10 9 10 10
4 4 4 4 4 4 4 4 4 4 4 4 4 4 4 4 4 4 5 5 5 5 5 5 5 5 8 9 3 3 4 6 6 7 7 5 7 9 9 10 9 11 13 11 10 10 11
5 5 5 5 5 4 4 4 4 4 4 4 3 3 3 3 3 3 3 4 4 4 4 4 4 7 11 5 3 4 4 6 5 6 7 5 5 8 9 8 10 12 13 14 11 10 10
5 5 5 5 5 5 5 4 4 4 4 4 5 4 4 3 3 4 4 4 4 4 4 3 6 6 11 5 7 5 5 7 6 6 6 5 7 9 9 12 13 12 14 15 14 11 11
6 5 5 5 5 5 5 4 4 4 4 4 4 4 4 3 3 3 3 4 4 4 6 3 4 9 7 9 6 5 3 5 6 7 6 7 9 11 11 13 16 14 15 15 15 13 13
5 5 5 4 4 4 4 4 5 4 4 4 4 3 3 3 3 2 3 6 9 10 10 13 12 12 11 8 7 6 4 5 6 7 10 8 11 14 12 11 11 11 12 13 13 13 14
5 5 5 5 4 4 4 4 4 4 3 3 3 3 3 3 2 2 4 8 9 9 14 11 11 10 9 8 12 10 6 10 9 11 10 10 14 10 10 11 12 12 13 13 13 14 15
4 5 5 5 5 4 4 4 4 3 3 3 3 3 3 3 2 4 6 7 5 6 14 14 11 12 11 9 12 11 9 10 11 12 11 13 12 9 11 13 14 13 14 13 13 14 14
5 5 5 5 4 4 3 4 3 3 3 4 3 3 3 2 5 5 7 4 4 6 17 17 14 10 9 8 12 10 7 10 11 13 11 12 10 10 11 13 13 15 11 12 13 14 16
4 4 4 4 4 4 4 3 3 3 4 3 3 3 3 2 5 7 6 4 5 7 25 15 11 5 9 10 11 10 8 10 13 13 11 14 12 12 13 12 11 14 11 12 12 13 14
4 4 4 4 4 4 4 3 3 3 3 3 3 3 2 4 4 5 4 5 7 17 25 17 12 12 12 9 9 9 8 6 7 11 11 11 9 10 11 9 9 10 12 13 12 12 17
4 4 4 4 4 4 4 4 3 3 3 3 3 3 3 4 7 4 4 8 18 22 14 16 14 11 11 11 10 10 11 12 15 15 14 13 12 10 9 11 10 11 13 17 18 18 19
3 4 3 4 4 4 4 4 4 3 3 3 3 3 4 4 4 4 7 13 21 17 15 10 10 10 11 9 10 12 12 13 11 12 14 15 17 11 10 10 12 12 12 16 21 19 18
3 4 3 4 4 4 4 4 4 3 3 3 3 4 6 4 4 5 11 18 17 13 10 10 10 12 12 10 10 13 12 13 11 12 15 15 14 8 8 8 9 12 13 11 15 19 16
3 4 3 4 4 4 4 3 3 3 3 3 6 7 7 5 4 7 13 15 13 9 8 8 13 11 13 12 12 12 14 12 12 11 12 14 16 10 9 8 8 10 10 14 14 20 20
4 4 4 4 4 4 4 4 3 3 3 4 6 11 7 5 5 10 15 13 11 7 7 9 11 11 11 12 11 13 15 12 11 11 9 11 13 14 10 12 13 12 12 11 11 13 17
3 3 4 4 4 3 4 4 3 3 3 5 9 14 7 5 13 14 13 12 8 7 6 8 8 9 11 10 11 12 14 12 9 9 12 11 12 16 14 9 8 9 10 11 15 17 15
3 3 3 3 3 3 3 3 3 3 3 7 11 11 7 7 15 15 13 11 9 8 8 8 9 8 8 11 13 12 12 9 9 10 11 10 14 17 17 13 10 12 11 10 10 11 15
3 3 3 3 3 3 3 3 3 3 3 6 10 14 11 10 11 12 13 11 11 7 8 7 8 8 9 11 9 13 13 10 8 8 7 9 12 15 17 14 12 14 12 10 11 15 14
3 3 3 3 3 3 3 3 3 3 3 6 10 13 12 14 12 10 8 9 10 11 7 7 9 9 10 13 12 12 11 11 9 8 9 10 15 14 13 12 12 12 12 12 13 12 14
2 3 3 3 3 3 3 3 3 3 3 7 11 11 12 12 12 10 8 10 10 10 9 10 10 9 9 11 11 12 11 10 11 9 10 10 14 14 15 13 14 14 11 12 12 12 12
2 2 3 3 3 3 3 3 3 3 4 8 8 8 10 11 11 11 10 10 9 8 8 7 8 9 10 9 7 7 7 7 8 10 12 12 13 15 18 15 15 16 14 12 11 10 10
2 2 3 3 3 3 3 3 3 3 4 6 7 8 11 14 10 10 9 8 9 8 9 7 6 8 6 4 4 6 7 8 8 9 9 12 13 14 17 16 20 15 11 11 12 11 11
2 2 3 3 3 3 3 3 3 3 3 5 5 8 9 13 10 9 8 8 7 7 8 7 6 5 4 6 10 12 13 14 13 11 10 9 12 16 18 18 15 14 12 12 12 11 10
2 2 2 3 3 3 3 3 3 3 3 5 5 4 7 12 11 6 8 7 9 9 9 7 4 4 5 8 11 15 17 17 16 14 9 9 10 14 17 19 20 13 10 9 10 14 10
2 2 2 2 3 3 3 3 3 3 3 4 5 3 6 10 6 5 8 8 6 8 9 8 8 7 5 10 13 14 15 15 16 16 15 13 13 16 16 18 15 11 9 9 17 14 9
2 2 2 2 3 3 3 3 3 4 3 4 5 3 5 8 6 4 4 6 6 7 10 8 9 9 9 12 12 12 15 14 15 13 13 14 14 15 16 18 19 10 10 14 10 8 8
2 2 2 3 3 3 3 3 4 4 4 4 8 3 2 6 6 3 2 2 3 4 6 6 8 9 7 10 10 11 14 15 13 15 12 14 11 13 12 13 9 9 9 8 7 8 8